Location: Albany
(35.0170°S, 117.8920°E)
Time: 21:43:37
(UTC+08:00)

A-11 Canister half - Pass Details

Date: 29 January 2021
Orbit: 1525 x 1684 km, 47.3° (Epoch: 03 March)

Event Time Altitude Azimuth Distance (km) Brightness Sun altitude
Rises 23:48:30 0° 330° (NNW) 4,910 - -36.4°
Reaches altitude 10° 23:51:47 10° 335° (NNW) 3,935 - -36.5°
Maximum altitude 00:01:25 50° 47° (NE) 2,059 - -36.8°
Exits shadow 00:04:14 41° 87° (E) 2,286 9.7 -36.8°
Drops below altitude 10° 00:11:01 10° 118° (ESE) 3,934 11.3 -36.9°
Sets 00:14:16 0° 122° (ESE) 4,909 12.0 -36.9°
